Location: Almena Post Office
(39.8928°N, 99.7066°W)
Time: 12:27:51
(UTC+00:00)

NOSS 3-4 (A) - Pass Details

Date: 27 February 2020
Orbit: 900 x 1313 km, 63.4° (Epoch: 26 March)

Event Time Altitude Azimuth Distance (km) Brightness Sun altitude
Rises 12:31:55 0° 325° (NW) 3,875 6.3 -9.2°
Reaches altitude 10° 12:34:28 10° 324° (NW) 2,973 5.7 -8.7°
Maximum altitude 12:41:37 82° 239° (WSW) 1,204 3.9 -7.3°
Drops below altitude 10° 12:49:28 10° 152° (SSE) 3,240 6.7 -5.8°
Sets 12:52:21 0° 152° (SSE) 4,240 7.4 -5.3°
